User: anonymous   Login
Location: Stoke Bliss
(52.2667°N, 2.5167°W)
Time: 00:26:41
(UTC+00:00)
Language:

SJ 16-02 - Orbit

View from above orbital plane
View from above orbital plane
View from above satellite
View from above satellite

Ground track
Ground track

The orbit data is extracted from the following two-line orbital elements,

1 41634U 16043A   21127.57205383  .00000084  00000-0  12763-4 0  9993
2 41634  75.0041 186.6437 0008789 240.1560 119.8740 14.85797747263372
Epoch (UTC): 07 May 2021 13:43:45
Eccentricity: 0.0008789
inclination: 75.0041°
perigee height: 605 km
apogee height: 617 km
right ascension of ascending node: 186.6437°
argument of perigee: 240.1560°
revolutions per day: 14.85797747
mean anomaly at epoch: 119.8740°
orbit number at epoch: 26337

The dashed part of the orbit path shows where the satellite is in the earth's shadow,  

DLR